N0NB Weather Reports


Display with metric or nautical units.
time (UTC)temp
F
wind
direction
speed
MPH
gust
MPH
rain 1hr
in
rain 24hr
in
rain mn
in
humidity
%
barometer
mb
20260504204016 85 270 5.0 13.0 0.00 0.00 0.00 22 1000.6
20260504203016 85 270 4.0 8.0 0.00 0.00 0.00 19 1000.6
20260504202016 85 338 4.0 9.0 0.00 0.00 0.00 21 1000.8
20260504201016 85 270 2.0 6.0 0.00 0.00 0.00 26 1001.0
20260504200016 85 315 3.0 9.0 0.00 0.00 0.00 22 1001.1
20260504195016 84 315 3.0 9.0 0.00 0.00 0.00 23 1001.1
20260504194016 85 338 5.0 11.0 0.00 0.00 0.00 22 1001.3
20260504193017 85 338 3.0 6.0 0.00 0.00 0.00 21 1001.1
20260504192016 85 45 3.0 9.0 0.00 0.00 0.00 25 1001.2
20260504191016 84 315 4.0 9.0 0.00 0.00 0.00 23 1001.1
20260504190016 84 293 7.0 16.0 0.00 0.00 0.00 22 1001.3
20260504185016 83 23 4.0 10.0 0.00 0.00 0.00 24 1001.3
20260504184016 83 293 3.0 7.0 0.00 0.00 0.00 25 1001.4
20260504183016 83 315 5.0 10.0 0.00 0.00 0.00 24 1001.4
20260504182016 83 315 4.0 8.0 0.00 0.00 0.00 25 1001.5
20260504181016 83 338 5.0 11.0 0.00 0.00 0.00 25 1001.4
20260504180016 82 338 4.0 8.0 0.00 0.00 0.00 24 1001.6
20260504175016 82 338 7.0 14.0 0.00 0.00 0.00 24 1001.6
20260504174016 82 0 4.0 12.0 0.00 0.00 0.00 27 1001.7
20260504173016 82 338 5.0 11.0 0.00 0.00 0.00 24 1001.9
20260504172016 82 315 7.0 11.0 0.00 0.00 0.00 25 1002.0
20260504171016 81 338 6.0 16.0 0.00 0.00 0.00 27 1002.0
20260504151016 72 270 5.0 10.0 0.00 0.00 0.00 50 1002.1
20260504141016 64 270 6.0 10.0 0.00 0.00 0.00 60 1001.8
20260504081017 51 0.0 1.0 0.00 0.00 0.00 68 1002.8
20260504050017 57 0.0 0.0 0.00 0.00 0.00 59 1005.9
20260504045016 58 0.0 0.0 0.00 0.00 0.00 59 1005.7
20260504044016 58 0.0 0.0 0.00 0.00 0.00 58 1005.7
20260504043016 59 68 1.0 2.0 0.00 0.00 0.00 56 1005.8
20260504042016 59 68 2.0 3.0 0.00 0.00 0.00 55 1005.5
20260504041016 60 68 1.0 3.0 0.00 0.00 0.00 55 1005.5
20260504040016 60 68 1.0 3.0 0.00 0.00 0.00 54 1005.7
20260504035016 60 68 1.0 2.0 0.00 0.00 0.00 54 1005.6
20260504034016 60 68 1.0 2.0 0.00 0.00 0.00 54 1006.0
20260504033016 61 68 1.0 3.0 0.00 0.00 0.00 54 1006.2
20260504032016 61 0.0 2.0 0.00 0.00 0.00 54 1006.1
20260504031016 62 68 1.0 3.0 0.00 0.00 0.00 53 1006.2
20260504030016 62 68 1.0 2.0 0.00 0.00 0.00 52 1006.5
20260504025016 63 68 2.0 3.0 0.00 0.00 0.00 52 1006.5
20260504024016 63 68 1.0 3.0 0.00 0.00 0.00 51 1006.6
20260504023015 64 68 1.0 2.0 0.00 0.00 0.00 51 1006.3
20260504022016 64 68 1.0 2.0 0.00 0.00 0.00 49 1006.1
20260504021016 65 0.0 0.0 0.00 0.00 0.00 49 1006.5
20260504020015 65 68 1.0 2.0 0.00 0.00 0.00 47 1006.3
20260504015015 66 0.0 0.0 0.00 0.00 0.00 45 1006.1
20260504014015 66 0.0 1.0 0.00 0.00 0.00 45 1006.1
20260504013015 67 68 1.0 2.0 0.00 0.00 0.00 44 1005.8
20260504012015 68 0.0 2.0 0.00 0.00 0.00 43 1005.9
20260504011015 69 0.0 0.0 0.00 0.00 0.00 44 1006.0
20260504010015 70 68 1.0 2.0 0.00 0.00 0.00 42 1006.1
20260504005015 72 0.0 2.0 0.00 0.00 0.00 38 1006.2
20260504004015 72 68 1.0 2.0 0.00 0.00 0.00 36 1006.1
20260504003015 73 68 2.0 3.0 0.00 0.00 0.00 36 1006.2
20260504002015 73 68 3.0 8.0 0.00 0.00 0.00 35 1006.3
20260504001015 74 68 3.0 8.0 0.00 0.00 0.00 36 1006.4
20260504000015 74 68 1.0 2.0 0.00 0.00 0.00 41 1006.7
20260503235015 75 68 1.0 3.0 0.00 0.00 0.00 40 1006.9
20260503234015 77 68 1.0 3.0 0.00 0.00 0.00 39 1007.1
20260503233015 78 0.0 0.0 0.00 0.00 0.00 30 1007.1
20260503232015 78 68 1.0 2.0 0.00 0.00 0.00 34 1007.3
20260503231015 79 68 1.0 2.0 0.00 0.00 0.00 28 1007.5
20260503230015 79 68 2.0 4.0 0.00 0.00 0.00 28 1007.6
20260503225015 79 338 1.0 3.0 0.00 0.00 0.00 31 1007.6
20260503224015 79 0 1.0 2.0 0.00 0.00 0.00 32 1007.6
20260503223015 78 0.0 2.0 0.00 0.00 0.00 30 1007.6
20260503222015 79 45 2.0 9.0 0.00 0.00 0.00 29 1007.6
20260503221015 79 0.0 1.0 0.00 0.00 0.00 35 1007.9
20260503220017 80 135 3.0 5.0 0.00 0.00 0.00 35 1007.9
20260503215017 81 203 2.0 4.0 0.00 0.00 0.00 29 1008.1
20260503214017 80 315 2.0 5.0 0.00 0.00 0.00 26 1008.2
20260503213017 80 68 2.0 5.0 0.00 0.00 0.00 27 1008.4
20260503212017 80 315 4.0 9.0 0.00 0.00 0.00 27 1008.6
20260503211017 80 113 2.0 7.0 0.00 0.00 0.00 31 1008.7
20260503210017 80 338 2.0 7.0 0.00 0.00 0.00 30 1009.0
20260503205017 80 45 3.0 7.0 0.00 0.00 0.00 31 1009.1